User: anonymous   Login
Location: CNYAC Observatory
(43.2150°N, 74.9500°W)
Time: 05:54:51
(UTC-05:00)
Language:

Meteor 1-22 Rocket - Orbit

View from above orbital plane
View from above orbital plane
View from above satellite
View from above satellite

Ground track
Ground track

The orbit data is extracted from the following two-line orbital elements,

1 08294U 75087B   14326.16335851  .00000141  00000-0  70686-4 0  1245
2 08294 081.2188 216.8378 0107145 167.6490 354.2856 14.08510652 12805
Epoch (UTC): 22 November 2014 03:55:14
Eccentricity: 0.0107145
inclination: 81.2188°
perigee height: 787 km
apogee height: 942 km
right ascension of ascending node: 216.8378°
argument of perigee: 167.6490°
revolutions per day: 14.08510652
mean anomaly at epoch: 354.2856°
orbit number at epoch: 1280

The dashed part of the orbit path shows where the satellite is in the earth's shadow,  

DLR